Brisbane, Queensland

8:32 PM AEST on August 27, 2016 (GMT +1000)
Brisbane

Weather History for 94578 - December, 2013

Change the Weather History Date:

Sunday, December 1, 2013

  Actual Average Record
Temperature  
Mean Temperature 67 °F -  
Max Temperature 75 °F 84 °F - ()
Min Temperature 59 °F 68 °F - ()
Cooling Degree Days 2    
Growing Degree Days 17 (Base 50)    
Moisture  
Dew Point 53 °F    
Average Humidity 57    
Maximum Humidity 88    
Minimum Humidity 35    
Precipitation  
Precipitation 0.00 in 0.17 in - ()
Sea Level Pressure  
Sea Level Pressure 30.13 in    
Wind  
Wind Speed 10 mph ()    
Max Wind Speed 17 mph    
Max Gust Speed 33 mph    
Visibility 6.9 miles    
Events      
T = Trace of Precipitation, MM = Missing Value Source: Averaged Metar Reports

Daily Weather History Graph

Daily Weather History Graph

Search for Another Location

Airport or City:

Trip Planner

Search our weather history database for the weather conditions in past years. The results will help you decide how hot, cold, wet, or windy it might be!

Date:

Astronomy

Dec. 01, 2013 Rise Set
Actual Time 4:44 AM AEST 6:28 PM AEST
Civil Twilight 4:18 AM AEST 6:54 PM AEST
Nautical Twilight 3:47 AM AEST 7:26 PM AEST
Astronomical Twilight 3:14 AM AEST 7:59 PM AEST
Moon 3:00 AM AEST (12/1) 4:32 PM AEST (12/1)
Length of Visible Light 14h 36m
Length of Day
13h 44m
Waning Crescent, 5% of the Moon is Illuminated
Dec 1
Waning Crescent
Dec 3
New
Dec 10
First Quarter
Dec 17
Full
Dec 25
Last Quarter

Hourly Weather History & Observations

Time (AEST) Temp. Dew Point Humidity Pressure Visibility Wind Dir Wind Speed Gust Speed Precip Events Conditions
12:00 AM 64 °F 54 °F 60% 30.10 in 22 mi South 6.9 mph - -   Partly Cloudy
12:00 AM 64.4 °F 53.6 °F 68% 30.09 in - South 6.9 mph - N/A   Clear
12:30 AM 60.8 °F 53.6 °F 77% 30.09 in - SSW 9.2 mph - N/A   Clear
1:00 AM 64 °F 53 °F 59% 30.10 in - SSW 8.1 mph - -  
1:00 AM 64.4 °F 53.6 °F 68% 30.09 in - SSW 8.1 mph - N/A   Clear
1:30 AM 60.8 °F 53.6 °F 77% 30.09 in - SSW 9.2 mph - N/A   Clear
2:00 AM 60.8 °F 53.6 °F 77% 30.06 in - SSW 10.4 mph - N/A   Clear
2:30 AM 62.6 °F 51.8 °F 68% 30.06 in - SSW 10.4 mph - N/A   Clear
3:00 AM 62 °F 53 °F 65% 30.09 in 22 mi SSW 10.4 mph - -   Partly Cloudy
3:00 AM 62.6 °F 53.6 °F 72% 30.09 in - SSW 10.4 mph - N/A   Clear
3:30 AM 60.8 °F 55.4 °F 82% 30.09 in - SSW 10.4 mph - N/A   Clear
4:00 AM 61 °F 54 °F 73% 30.10 in - SSW 11.5 mph - -  
4:00 AM 60.8 °F 55.4 °F 82% 30.09 in 6.2 mi SSW 11.5 mph - N/A   Partly Cloudy
4:30 AM 59.0 °F 55.4 °F 88% 30.09 in - SSW 10.4 mph - N/A   Clear
5:00 AM 60.8 °F 55.4 °F 82% 30.12 in - SSW 10.4 mph - N/A   Clear
5:30 AM 60.8 °F 55.4 °F 82% 30.12 in - SSW 10.4 mph - N/A   Clear
6:00 AM 64 °F 55 °F 65% 30.15 in 22 mi SSW 11.5 mph - -   Partly Cloudy
6:00 AM 64.4 °F 55.4 °F 73% 30.15 in - SSW 11.5 mph - N/A   Clear
6:30 AM 64.4 °F 55.4 °F 73% 30.15 in 6.2 mi SSW 12.7 mph - N/A   Partly Cloudy
7:00 AM 66 °F 55 °F 60% 30.17 in - SSW 15.0 mph - -  
7:00 AM 66.2 °F 55.4 °F 68% 30.15 in - SSW 15.0 mph - N/A   Clear
7:30 AM 69.8 °F 55.4 °F 60% 30.15 in 6.2 mi SSW 11.5 mph - N/A   Partly Cloudy
8:00 AM 71.6 °F 53.6 °F 53% 30.15 in 6.2 mi South 10.4 mph - N/A   Partly Cloudy
8:30 AM 73.4 °F 53.6 °F 50% 30.15 in 6.2 mi SSE 9.2 mph - N/A   Scattered Clouds
9:00 AM 72 °F 52 °F 38% 30.18 in 22 mi SE 11.5 mph - -   Partly Cloudy
9:00 AM 71.6 °F 51.8 °F 50% 30.15 in 6.2 mi SE 11.5 mph - N/A   Scattered Clouds
9:30 AM 73.4 °F 51.8 °F 47% 30.15 in 6.2 mi SE 11.5 mph - N/A   Scattered Clouds
10:00 AM 74 °F 52 °F 36% 30.17 in - ESE 13.8 mph - -  
10:00 AM 73.4 °F 51.8 °F 47% 30.15 in 6.2 mi ESE 13.8 mph - N/A   Scattered Clouds
10:30 AM 75.2 °F 53.6 °F 47% 30.15 in 6.2 mi East 15.0 mph - N/A   Scattered Clouds
11:00 AM 73.4 °F 51.8 °F 47% 30.15 in 6.2 mi ESE 13.8 mph - N/A   Mostly Cloudy
11:30 AM 73.4 °F 51.8 °F 47% 30.15 in 6.2 mi ESE 17.3 mph - N/A   Scattered Clouds
12:00 PM 74 °F 52 °F 35% 30.16 in 22 mi ESE 13.8 mph - -   Partly Cloudy
12:00 PM 75.2 °F 51.8 °F 44% 30.15 in 6.2 mi ESE 13.8 mph - N/A   Scattered Clouds
12:30 PM 75.2 °F 50.0 °F 41% 30.15 in 6.2 mi ESE 12.7 mph - N/A   Scattered Clouds
1:00 PM 75 °F 55 °F 40% 30.14 in - East 13.8 mph - -  
1:00 PM 75.2 °F 55.4 °F 50% 30.12 in 6.2 mi East 13.8 mph - N/A   Mostly Cloudy
1:30 PM 73.4 °F 53.6 °F 50% 30.12 in 6.2 mi ESE 16.1 mph - N/A   Scattered Clouds
2:00 PM 75.2 °F 53.6 °F 47% 30.09 in 6.2 mi ESE 16.1 mph - N/A   Scattered Clouds
2:30 PM 73.4 °F 53.6 °F 50% 30.09 in 6.2 mi ESE 16.1 mph 28.8 mph N/A   Partly Cloudy
3:00 PM 74 °F 52 °F 36% 30.10 in 22 mi ESE 17.3 mph - -   Partly Cloudy
3:00 PM 73.4 °F 51.8 °F 47% 30.09 in 6.2 mi ESE 17.3 mph - N/A   Partly Cloudy
3:30 PM 73.4 °F 50.0 °F 44% 30.09 in 6.2 mi ESE 16.1 mph 28.8 mph N/A   Scattered Clouds
4:00 PM 72 °F 52 °F 39% 30.12 in - SE 13.8 mph - -  
4:00 PM 71.6 °F 51.8 °F 50% 30.09 in 6.2 mi SE 13.8 mph 25.3 mph N/A   Mostly Cloudy
4:30 PM 71.6 °F 51.8 °F 50% 30.09 in - SE 16.1 mph - N/A   Clear
5:00 PM 71.6 °F 51.8 °F 50% 30.12 in - ESE 15.0 mph - N/A   Clear
5:30 PM 71.6 °F 51.8 °F 50% 30.12 in - SE 15.0 mph 27.6 mph N/A   Clear
6:00 PM 70 °F 52 °F 43% 30.13 in 19 mi SE 13.8 mph - -   Partly Cloudy
6:00 PM 69.8 °F 51.8 °F 53% 30.12 in 6.2 mi SE 13.8 mph 25.3 mph N/A   Partly Cloudy
6:30 PM 69.8 °F 53.6 °F 56% 30.12 in 6.2 mi SE 17.3 mph 28.8 mph N/A   Partly Cloudy
7:00 PM 70 °F 52 °F 43% 30.15 in - SE 15.0 mph - -  
7:00 PM 69.8 °F 51.8 °F 53% 30.15 in 6.2 mi SE 15.0 mph 33.4 mph N/A   Partly Cloudy
7:30 PM 69.8 °F 51.8 °F 53% 30.15 in 6.2 mi SE 15.0 mph 28.8 mph N/A   Partly Cloudy
8:00 PM 69.8 °F 53.6 °F 56% 30.18 in 6.2 mi SE 15.0 mph - N/A   Partly Cloudy
8:30 PM 68.0 °F 53.6 °F 60% 30.18 in 6.2 mi SSE 11.5 mph - N/A   Partly Cloudy
9:00 PM 68 °F 53 °F 49% 30.20 in 16 mi SSE 10.4 mph - -   Haze
9:00 PM 68.0 °F 53.6 °F 60% 30.18 in 6.2 mi SSE 10.4 mph - N/A   Partly Cloudy
9:30 PM 66.2 °F 53.6 °F 64% 30.18 in 6.2 mi SSE 9.2 mph - N/A   Partly Cloudy
10:00 PM 66 °F 53 °F 52% 30.19 in - SSE 6.9 mph - -  
10:00 PM 66.2 °F 51.8 °F 60% 30.18 in 6.2 mi SSE 6.9 mph - N/A   Partly Cloudy
10:30 PM 66.2 °F 51.8 °F 60% 30.18 in 6.2 mi SSE 8.1 mph - N/A   Partly Cloudy
11:00 PM 64.4 °F 53.6 °F 68% 30.18 in 6.2 mi SSE 6.9 mph - N/A   Partly Cloudy
11:30 PM 64.4 °F 53.6 °F 68% 30.15 in 6.2 mi South 8.1 mph - N/A   Partly Cloudy